Flag for Germany Weather past 2 weeks in Lampertheim, Hesse, Germany

Now
55 °F

Clear.


Feels Like: 55 °F
Forecast: 58 / 75 °F
Wind: 3 mph from Southwest

Location: Baden Wurttemberg - Neuostheim

Current Time: Aug 28, 2014 at 6:17:30 AM

Latest Report: Aug 28, 2014 at 5:50 AM


Visibility: 10 mi

Pressure: 30.04 "Hg

Humidity: 100%

Dew point: 55 °F

Location of LampertheimLocation

Historic Weather in Lampertheim — Graph

°F

Lampertheim temperature yesterday

Maximum temperature yesterday: 70 °F (at 5:50 PM)
Minimum temperature yesterday: 57 °F (at 5:20 AM)
Average temperature yesterday: 63 °F

Past Weeks' High & Low Weather Summary

 TemperatureHumidityPressure
High72 °F (Aug 19, 5:50 PM)100% (Aug 19, 5:50 AM)30.15 "Hg (Aug 19, 5:50 AM)
Low48 °F (Aug 20, 5:50 AM)33% (Aug 21, 4:20 PM)29.65 "Hg (Aug 13, 1:50 PM)
Average62 °F69%29.94 "Hg
* Reported Aug 13 5:50 AM — Aug 28 5:20 AM, Lampertheim, Weather by CustomWeather, © 2014

Note: Actual official high and low records may vary slightly from our data, if they occured in-between our weather recording intervals... More about our weather records

Advertising

Lampertheim weather history for previous 24 hours

 ConditionsComfort  
Time TempWeatherWind HumidityBarometerVisibility
5:20 AM
Aug 28
54 °FClear.1 mph94%30.04 "Hg10 mi
8:50 PM
Aug 27
63 °FSunny.2 mph73%30.04 "Hg10 mi
7:50 PM66 °FSunny.3 mph60%30.04 "Hg10 mi
7:20 PM68 °FPassing clouds.3 mph56%30.04 "HgN/A
6:50 PM70 °FPassing clouds.3 mph53%30.04 "HgN/A
6:20 PM70 °FPassing clouds.3 mph50%30.04 "HgN/A
5:50 PM70 °FScattered clouds.3 mph50%30.04 "HgN/A
4:20 PM68 °FScattered clouds.6 mph56%30.04 "HgN/A
3:50 PM68 °FScattered clouds.3 mph56%30.04 "HgN/A
3:20 PM68 °FScattered clouds.7 mph60%30.04 "HgN/A
2:50 PM66 °FScattered clouds.7 mph64%30.04 "HgN/A
2:20 PM66 °FPartly sunny.1 mph60%30.04 "HgN/A
1:50 PM66 °FPartly sunny.3 mph60%30.01 "HgN/A
1:20 PM66 °FScattered clouds.2 mph56%30.01 "HgN/A
12:50 PM64 °FScattered clouds.5 mph60%30.01 "HgN/A
12:20 PM66 °FScattered clouds.3 mph60%30.01 "HgN/A
11:50 AM63 °FPartly sunny.5 mph68%30.01 "HgN/A
11:20 AM63 °FPartly sunny.5 mph73%30.01 "HgN/A
10:50 AM61 °FPartly sunny.6 mph77%30.01 "HgN/A
10:20 AM61 °FPartly sunny.6 mph83%29.98 "HgN/A
9:50 AM59 °FPartly sunny.6 mph88%29.98 "HgN/A
9:20 AM59 °FPartly sunny.7 mph88%29.98 "HgN/A
8:50 AM59 °FPartly sunny.6 mph88%29.95 "HgN/A
8:20 AM57 °FBroken clouds.8 mph94%29.95 "HgN/A
7:50 AM57 °FCloudy.9 mph94%29.92 "HgN/A
7:20 AM57 °FMostly cloudy.7 mph94%29.92 "HgN/A
6:50 AM57 °FMostly cloudy.7 mph94%29.89 "HgN/A
6:20 AM57 °FMostly cloudy.8 mph100%29.89 "HgN/A
Weather by CustomWeather, © 2014

See weather overviewHow to use our weather pages